Weather History for Winfield, KS

Change the Weather History Date:

Thursday, April 4, 2013

  Actual Average Record
Temperature  
Mean Temperature 46 °F -  
Max Temperature 57 °F 63 °F 80 °F (2005)
Min Temperature 34 °F 41 °F 32 °F (2002)
Degree Days  
Heating Degree Days 20    
Moisture  
Dew Point 38 °F    
Average Humidity 76    
Maximum Humidity 100    
Minimum Humidity 49    
Precipitation  
Precipitation 0.00 in - - ()
Sea Level Pressure  
Sea Level Pressure 30.20 in    
Wind  
Wind Speed 5 mph (NW)    
Max Wind Speed 12 mph    
Max Gust Speed -    
Visibility 8 miles    
Events      
Averages and records for this station are not official NWS values.
T = Trace of Precipitation, MM = Missing Value Source: NWS Daily Summary

Daily Weather History Graph

Daily Weather History Graph

Search for Another Location

Airport:

Trip Planner

Search our weather history database for the weather conditions in past years. The results will help you decide how hot, cold, wet, or windy it might be!

Date:

Astronomy

Apr. 04, 2013 Rise Set
Actual Time 7:08 AM CDT 7:53 PM CDT
Civil Twilight 6:42 AM CDT 8:20 PM CDT
Nautical Twilight 6:11 AM CDT 8:51 PM CDT
Astronomical Twilight 5:39 AM CDT 9:23 PM CDT
Moon 3:29 AM CDT (4/4) 2:20 PM CDT (4/4)
Length of Visible Light 13h 37m
Length of Day
12h 44m
Waning Crescent, 33% of the Moon is Illuminated
Apr 4
Waning Crescent
Apr 10
New
Apr 18
First Quarter
Apr 25
Full
May 2
Last Quarter

Hourly Weather History & Observations

Time (CDT) Temp. Windchill Dew Point Humidity Pressure Visibility Wind Dir Wind Speed Gust Speed Precip Events Conditions
12:54 AM 37.9 °F 34.4 °F 37.0 °F 97% 30.26 in 8.0 mi NW 4.6 mph - N/A   Overcast
1:54 AM 37.9 °F - 37.0 °F 97% 30.27 in 7.0 mi Calm Calm - N/A   Overcast
2:54 AM 37.9 °F 34.4 °F 37.0 °F 97% 30.25 in 6.0 mi WNW 4.6 mph - N/A   Overcast
3:54 AM 37.9 °F 34.4 °F 37.0 °F 97% 30.24 in 6.0 mi NW 4.6 mph - N/A   Overcast
4:54 AM 37.9 °F - 37.9 °F 100% 30.23 in 6.0 mi Calm Calm - N/A   Overcast
5:54 AM 35.1 °F 31.0 °F 34.0 °F 96% 30.22 in 3.0 mi NW 4.6 mph - N/A   Partly Cloudy
6:54 AM 34.0 °F 31.0 °F 33.1 °F 96% 30.22 in 4.0 mi NNW 3.5 mph - N/A   Clear
7:54 AM 34.0 °F 29.8 °F 33.1 °F 96% 30.23 in 3.0 mi NNW 4.6 mph - N/A   Clear
8:54 AM 42.1 °F 36.6 °F 39.0 °F 89% 30.22 in 7.0 mi NNW 9.2 mph - N/A   Clear
9:54 AM 46.0 °F 40.6 °F 35.1 °F 66% 30.21 in 10.0 mi North 11.5 mph - N/A   Clear
10:54 AM 50.0 °F - 35.1 °F 57% 30.22 in 10.0 mi North 11.5 mph - N/A   Clear
11:54 AM 52.0 °F - 35.1 °F 53% 30.21 in 10.0 mi NNE 6.9 mph - N/A   Clear
12:54 PM 53.1 °F - 36.0 °F 52% 30.20 in 10.0 mi NW 6.9 mph - N/A   Partly Cloudy
1:54 PM 54.0 °F - 36.0 °F 51% 30.18 in 10.0 mi Variable 4.6 mph - N/A   Clear
2:54 PM 57.0 °F - 37.9 °F 49% 30.16 in 10.0 mi Variable 4.6 mph - N/A   Partly Cloudy
3:54 PM 55.9 °F - 37.9 °F 51% 30.14 in 10.0 mi Calm Calm - N/A   Clear
4:54 PM 57.9 °F - 41.0 °F 53% 30.13 in 10.0 mi West 5.8 mph - N/A   Clear
5:54 PM 57.0 °F - 41.0 °F 55% 30.13 in 10.0 mi West 8.1 mph - N/A   Clear
6:54 PM 55.0 °F - 42.1 °F 62% 30.13 in 10.0 mi West 5.8 mph - N/A   Clear
7:54 PM 50.0 °F - 42.1 °F 74% 30.15 in 10.0 mi West 6.9 mph - N/A   Clear
8:54 PM 46.9 °F - 41.0 °F 80% 30.16 in 10.0 mi West 5.8 mph - N/A   Clear
9:54 PM 45.0 °F 42.6 °F 39.9 °F 82% 30.18 in 10.0 mi West 4.6 mph - N/A   Clear
10:54 PM 43.0 °F 40.3 °F 39.0 °F 86% 30.17 in 10.0 mi West 4.6 mph - N/A   Clear
11:54 PM 41.0 °F 39.0 °F 37.9 °F 89% 30.18 in 10.0 mi West 3.5 mph - N/A   Clear